Simultaneous Nadir Overpasses (SNOs) Predictions

Prediction of SNOs between NOAA-20 and METOP-C Satellite Orbit:

Table of predicted SNOs for the next 14.0 days since TLE Epoch: 3/2/2024
Index Date (NOAA-20) Time (NOAA-20) Lat,Lon (NOAA-20) SZA (NOAA-20 ) Date (METOP-C) Time (METOP-C) Lat,Lon (METOP-C) SZA (METOP-C ) Distance(km) Time Diff (sec)
1 03/04/2024 00:00:32 73.49, 170.16 80.13 03/04/2024 00:01:39 73.40, 172.66 79.89 80.00 67
2 03/04/2024 00:51:14 -73.40, -22.32 99.99 03/04/2024 00:52:23 -73.34, -20.16 100.19 69.17 69
3 03/04/2024 01:41:55 73.15, 145.55 79.72 03/04/2024 01:43:06 73.13, 146.72 79.62 37.63 71
4 03/04/2024 02:32:38 -73.11, -47.04 100.34 03/04/2024 02:33:50 -73.07, -46.09 100.45 30.99 72
5 03/04/2024 03:23:20 72.90, 120.71 79.42 03/04/2024 03:24:33 72.86, 120.79 79.35 5.72 73
6 03/04/2024 04:14:03 -72.86, -71.89 100.64 03/04/2024 04:15:16 -72.85, -71.90 100.67 1.62 73
7 03/04/2024 05:04:49 72.86, 95.43 79.34 03/04/2024 05:05:55 72.84, 95.41 79.31 2.45 66
8 03/04/2024 05:55:33 -72.87, -97.27 100.66 03/04/2024 05:56:37 -72.88, -97.18 100.67 3.31 64
9 03/04/2024 06:46:19 72.86, 70.04 79.32 03/04/2024 06:47:16 72.87, 70.13 79.31 2.99 57
10 03/04/2024 07:37:03 -72.87,-122.66 100.68 03/04/2024 07:37:59 -72.86,-122.56 100.72 3.72 56
11 03/04/2024 08:27:48 72.82, 44.76 79.25 03/04/2024 08:28:38 72.84, 44.75 79.26 2.94 50
12 03/04/2024 09:18:32 -72.83,-147.94 100.76 03/04/2024 09:19:21 -72.84,-147.95 100.77 0.80 49
13 03/04/2024 10:09:18 72.82, 19.38 79.23 03/04/2024 10:10:00 72.82, 19.37 79.22 0.31 42
14 03/04/2024 11:00:02 -72.83,-173.33 100.78 03/04/2024 11:00:43 -72.81,-173.33 100.81 2.17 41
15 03/04/2024 11:50:48 72.83, -6.01 79.21 03/04/2024 11:51:22 72.80, -6.02 79.17 3.10 34
16 03/04/2024 12:41:31 -72.79, 161.39 100.86 03/04/2024 12:42:05 -72.79, 161.29 100.86 3.41 34
17 03/04/2024 13:32:18 72.84, -31.40 79.18 03/04/2024 13:32:43 72.83, -31.29 79.17 3.44 25
18 03/04/2024 14:23:01 -72.80, 136.00 100.88 03/04/2024 14:23:26 -72.82, 136.01 100.86 3.13 25
19 03/04/2024 15:13:47 72.79, -56.68 79.11 03/04/2024 15:14:05 72.81, -56.68 79.12 2.19 18
20 03/04/2024 16:04:31 -72.80, 110.62 100.90 03/04/2024 16:04:48 -72.80, 110.63 100.90 0.36 17
21 03/04/2024 16:55:17 72.80, -82.07 79.09 03/04/2024 16:55:27 72.79, -82.06 79.08 0.83 10
22 03/04/2024 17:46:01 -72.81, 85.23 100.92 03/04/2024 17:46:10 -72.78, 85.24 100.95 2.85 9
23 03/04/2024 18:36:46 72.75,-107.35 79.01 03/04/2024 18:36:49 72.77,-107.44 79.03 3.69 3
24 03/04/2024 19:27:30 -72.76, 59.95 101.00 03/04/2024 19:27:32 -72.76, 59.86 100.99 2.92 2
25 03/04/2024 20:18:16 72.76,-132.73 78.99 03/04/2024 20:18:11 72.75,-132.83 78.99 3.32 5
26 03/04/2024 21:09:00 -72.77, 34.56 101.02 03/04/2024 21:08:53 -72.79, 34.58 101.00 2.57 7
27 03/04/2024 21:59:46 72.77,-158.12 78.97 03/04/2024 21:59:32 72.78,-158.11 78.98 1.53 14
28 03/04/2024 22:50:30 -72.78, 9.18 101.04 03/04/2024 22:50:15 -72.77, 9.20 101.04 0.93 15
29 03/04/2024 23:41:16 72.77, 176.49 78.95 03/04/2024 23:40:54 72.76, 176.51 78.94 1.68 22
30 03/05/2024 00:31:59 -72.73, -16.11 101.12 03/05/2024 00:31:37 -72.75, -16.18 101.09 3.33 22
31 03/05/2024 01:22:45 72.73, 151.21 78.87 03/05/2024 01:22:16 72.74, 151.13 78.89 2.94 29
32 03/05/2024 02:13:29 -72.74, -41.49 101.14 03/05/2024 02:12:59 -72.73, -41.57 101.13 2.57 30
33 03/05/2024 03:04:14 72.73, 125.82 78.85 03/05/2024 03:03:37 72.72, 125.74 78.85 3.27 37
34 03/05/2024 03:54:58 -72.74, -66.88 101.16 03/05/2024 03:54:19 -72.76, -66.84 101.13 2.14 39
35 03/05/2024 04:45:44 72.74, 100.44 78.83 03/05/2024 04:44:58 72.75, 100.47 78.85 1.19 46
36 03/05/2024 05:36:28 -72.75, -92.27 101.18 03/05/2024 05:35:41 -72.74, -92.23 101.18 1.73 47
37 03/05/2024 06:27:14 72.75, 75.05 78.81 03/05/2024 06:26:20 72.72, 75.08 78.80 2.58 54
38 03/05/2024 07:17:57 -72.70,-117.55 101.25 03/05/2024 07:17:03 -72.72,-117.61 101.22 2.53 54
39 03/05/2024 08:08:43 72.70, 49.77 78.73 03/05/2024 08:07:42 72.70, 49.70 78.75 2.27 61
40 03/05/2024 08:59:27 -72.71,-142.93 101.28 03/05/2024 08:58:25 -72.70,-142.99 101.27 2.46 62
41 03/05/2024 09:50:13 72.71, 24.38 78.71 03/05/2024 09:49:03 72.73, 24.42 78.75 3.21 70
42 03/05/2024 10:40:57 -72.72,-168.32 101.30 03/05/2024 10:39:46 -72.73,-168.27 101.27 1.99 71
43 03/05/2024 11:31:41 72.61, -0.80 78.58 03/05/2024 11:30:27 72.61, -1.17 78.62 12.40 74
44 03/05/2024 12:22:24 -72.57, 166.60 101.48 03/05/2024 12:21:10 -72.60, 166.14 101.41 15.92 74
45 03/05/2024 13:13:05 72.31, -25.57 78.22 03/05/2024 13:11:55 72.28, -27.16 78.31 53.96 70
46 03/05/2024 14:03:48 -72.27, 141.83 101.84 03/05/2024 14:02:38 -72.28, 140.15 101.72 56.77 70
47 03/05/2024 14:54:29 72.01, -50.36 77.87 03/05/2024 14:53:22 72.00, -53.04 78.04 91.88 67
48 03/05/2024 15:45:12 -71.97, 117.03 102.19 03/05/2024 15:44:06 -71.95, 114.18 102.02 98.10 66



Historial Predications of SNOs between NOAA-20 and METOP-C
